TimePST,TemperatureF,Dew PointF,Humidity,Sea Level PressureIn,VisibilityMPH,Wind Direction,Wind SpeedMPH,Gust SpeedMPH,PrecipitationIn,Events,Conditions,WindDirDegrees,DateUTC
12:06 AM,37.4,33.8,87,30.05,1.8,Calm,Calm,-,N/A,,Mostly Cloudy,0,2012-11-24 08:06:00
12:12 AM,37.4,33.8,87,30.05,2.0,East,3.5,-,N/A,,Scattered Clouds,90,2012-11-24 08:12:00
12:29 AM,37.4,33.8,87,30.05,3.0,Calm,Calm,-,N/A,,Clear,0,2012-11-24 08:29:00
12:44 AM,37.4,33.8,87,30.05,4.0,ENE,3.5,-,N/A,,Partly Cloudy,60,2012-11-24 08:44:00
12:53 AM,37.9,34.0,86,30.09,4.0,Calm,Calm,-,N/A,,Scattered Clouds,0,2012-11-24 08:53:00
1:01 AM,37.4,33.8,87,30.05,4.0,ENE,3.5,-,N/A,,Mostly Cloudy,70,2012-11-24 09:01:00
1:53 AM,37.9,34.0,86,30.09,5.0,Calm,Calm,-,N/A,,Overcast,0,2012-11-24 09:53:00
2:53 AM,42.1,36.0,79,30.10,10.0,NW,9.2,-,N/A,,Clear,310,2012-11-24 10:53:00
4:53 AM,42.1,33.1,70,30.12,10.0,NW,15.0,-,N/A,,Clear,310,2012-11-24 12:53:00
5:53 AM,41.0,34.0,76,30.15,10.0,NW,17.3,-,N/A,,Mostly Cloudy,310,2012-11-24 13:53:00
6:53 AM,39.0,32.0,76,30.16,10.0,North,10.4,-,N/A,,Clear,350,2012-11-24 14:53:00
7:53 AM,39.0,32.0,76,30.17,10.0,NNW,12.7,-,N/A,,Clear,330,2012-11-24 15:53:00
8:53 AM,43.0,33.1,68,30.19,10.0,NW,10.4,19.6,N/A,,Clear,310,2012-11-24 16:53:00
9:53 AM,45.0,34.0,65,30.21,10.0,NNW,10.4,-,N/A,,Clear,330,2012-11-24 17:53:00
10:53 AM,46.9,34.0,61,30.20,10.0,NNW,15.0,-,N/A,,Clear,340,2012-11-24 18:53:00
11:53 AM,48.9,33.1,54,30.19,10.0,NW,18.4,-,N/A,,Clear,320,2012-11-24 19:53:00
12:53 PM,48.9,32.0,52,30.17,10.0,NW,15.0,19.6,N/A,,Clear,320,2012-11-24 20:53:00
1:53 PM,48.0,30.9,52,30.17,10.0,NW,15.0,-,N/A,,Clear,320,2012-11-24 21:53:00
2:53 PM,46.0,30.9,56,30.17,10.0,NW,10.4,-,N/A,,Clear,310,2012-11-24 22:53:00
3:53 PM,44.1,30.9,60,30.17,10.0,NW,10.4,-,N/A,,Clear,320,2012-11-24 23:53:00
4:53 PM,37.9,30.0,73,30.17,10.0,NNW,5.8,-,N/A,,Clear,340,2012-11-25 00:53:00
5:53 PM,35.1,28.0,76,30.18,10.0,North,8.1,-,N/A,,Clear,350,2012-11-25 01:53:00
6:53 PM,34.0,27.0,75,30.18,10.0,NNW,8.1,-,N/A,,Clear,330,2012-11-25 02:53:00
7:53 PM,34.0,27.0,75,30.18,10.0,WNW,6.9,-,N/A,,Clear,300,2012-11-25 03:53:00
8:53 PM,33.1,27.0,78,30.18,10.0,NNE,5.8,-,N/A,,Clear,20,2012-11-25 04:53:00
9:53 PM,32.0,26.1,79,30.17,10.0,WNW,5.8,-,N/A,,Clear,300,2012-11-25 05:53:00
10:53 PM,34.0,27.0,75,30.18,10.0,Calm,Calm,-,N/A,,Clear,0,2012-11-25 06:53:00
11:53 PM,37.0,28.0,70,30.17,10.0,NW,12.7,-,N/A,,Clear,310,2012-11-25 07:53:00